CW0350 Weather Reports


time (UTC)temp
C
wind
direction
speed
KPH
gust
KPH
rain 1hr
cm
rain 24hr
cm
rain mn
cm
humidity
%
barometer
mb
20260507130256 13 56 3.2 3.2 0.00 0.03 0.03 94 1012.3
20260507125755 13 72 3.2 4.8 0.00 0.03 0.03 95 1012.3
20260507125252 13 40 3.2 3.2 0.00 0.03 0.03 95 1012.2
20260507124749 13 54 3.2 3.2 0.00 0.03 0.03 95 1012.4
20260507124245 13 55 1.6 1.6 0.00 0.03 0.03 95 1012.1
20260507123744 13 50 3.2 4.8 0.00 0.03 0.03 95 1012.4
20260507123241 13 56 1.6 3.2 0.00 0.03 0.03 95 1012.2
20260507122736 13 332 1.6 3.2 0.00 0.03 0.03 95 1012.3
20260507122232 13 51 1.6 1.6 0.00 0.03 0.03 95 1012.1
20260507121728 13 51 3.2 3.2 0.00 0.03 0.03 95 1012.2
20260507121224 13 351 0.0 0.0 0.00 0.03 0.03 95 1012.6
20260507120720 14 9 0.0 1.6 0.00 0.03 0.03 95 1012.1
20260507120218 13 337 0.0 1.6 0.00 0.03 0.03 94 1012.1
20260507115713 13 5 1.6 1.6 0.00 0.03 0.03 94 1012.3
20260507115209 13 320 0.0 0.0 0.00 0.03 0.03 94 1011.9
20260507114705 13 31 0.0 1.6 0.00 0.03 0.03 94 1011.9
20260507114203 14 7 0.0 0.0 0.00 0.03 0.03 93 1012.4
20260507113700 14 322 1.6 1.6 0.00 0.03 0.03 93 1012.4
20260507113156 14 41 0.0 0.0 0.00 0.03 0.03 92 1012.2
20260507112654 14 3 1.6 1.6 0.00 0.03 0.03 92 1012.2
20260507112151 14 10 1.6 1.6 0.00 0.03 0.03 91 1012.4
20260507111648 14 64 1.6 1.6 0.00 0.03 0.03 91 1011.9
20260507111145 14 55 3.2 3.2 0.00 0.03 0.03 92 1012.0
20260507110641 14 61 1.6 3.2 0.00 0.03 0.03 94 1011.8
20260507110138 15 32 1.6 1.6 0.00 0.03 0.03 95 1011.8
20260507105635 15 65 1.6 1.6 0.00 0.03 0.03 96 1011.6
20260507105131 15 49 1.6 1.6 0.00 0.03 0.03 95 1011.5
20260507104629 15 2 0.0 0.0 0.00 0.03 0.03 95 1011.2
20260507104125 15 15 1.6 1.6 0.00 0.03 0.03 95 1011.5
20260507103621 15 11 1.6 1.6 0.00 0.03 0.03 95 1011.2
20260507103118 15 348 0.0 0.0 0.00 0.03 0.03 95 1011.4
20260507102614 16 332 0.0 1.6 0.00 0.03 0.03 95 1011.4
20260507102110 16 351 0.0 1.6 0.00 0.03 0.03 95 1011.2
20260507101606 16 347 0.0 0.0 0.00 0.03 0.03 95 1010.9
20260507101102 16 309 1.6 1.6 0.00 0.03 0.03 95 1010.8
20260507100600 17 317 0.0 1.6 0.00 0.03 0.03 95 1011.1
20260507100058 17 11 1.6 1.6 0.00 0.03 0.03 94 1010.8
20260507095555 17 341 1.6 3.2 0.00 0.03 0.03 94 1010.9
20260507095052 17 352 3.2 3.2 0.00 0.03 0.03 94 1010.9
20260507094548 17 46 1.6 1.6 0.00 0.03 0.03 94 1010.6
20260507094045 17 52 1.6 1.6 0.00 0.03 0.03 94 1010.4
20260507093543 18 34 1.6 1.6 0.00 0.03 0.03 95 1010.6
20260507093041 18 73 0.0 1.6 0.00 0.03 0.03 95 1010.4
20260507092537 18 325 0.0 0.0 0.00 0.03 0.03 95 1010.4
20260507092034 19 324 0.0 0.0 0.00 0.03 0.03 95 1010.5
20260507091531 18 325 0.0 0.0 0.00 0.03 0.03 95 1010.4
20260507091027 18 325 0.0 0.0 0.00 0.03 0.03 95 1010.3
20260507090523 18 325 0.0 0.0 0.00 0.03 0.03 94 1010.2
20260507090020 18 325 0.0 0.0 0.00 0.03 0.03 94 1010.2
20260507085517 18 325 0.0 0.0 0.00 0.03 0.03 94 1010.1
20260507085014 18 325 0.0 0.0 0.00 0.03 0.03 94 1010.3
20260507084510 18 324 0.0 0.0 0.00 0.03 0.03 94 1010.4
20260507084007 19 325 0.0 1.6 0.00 0.03 0.03 94 1010.3
20260507083503 19 324 0.0 0.0 0.00 0.03 0.03 94 1010.1
20260507083000 19 264 0.0 0.0 0.00 0.03 0.03 94 1010.2
20260507082457 19 327 0.0 0.0 0.00 0.03 0.03 94 1010.1
20260507081953 19 316 0.0 0.0 0.00 0.03 0.03 94 1010.2
20260507081449 19 255 0.0 0.0 0.00 0.03 0.03 93 1010.2
20260507080946 19 356 0.0 1.6 0.00 0.03 0.03 93 1010.2
20260507080442 19 358 0.0 0.0 0.00 0.03 0.03 93 1010.0
20260507075937 19 341 0.0 1.6 0.00 0.03 0.03 93 1009.9
20260507075434 19 229 0.0 1.6 0.00 0.03 0.03 93 1010.0
20260507074931 19 314 0.0 0.0 0.00 0.03 0.03 93 1010.0
20260507074427 19 314 0.0 0.0 0.00 0.03 0.03 93 1010.1
20260507073926 19 287 0.0 0.0 0.00 0.03 0.03 93 1010.4
20260507073421 19 144 1.6 3.2 0.00 0.03 0.03 93 1010.1
20260507072919 19 8 3.2 3.2 0.00 0.03 0.03 93 1010.0
20260507072416 19 258 0.0 0.0 0.00 0.03 0.03 93 1010.1
20260507071914 19 335 0.0 0.0 0.00 0.03 0.03 93 1010.2
20260507071411 19 270 1.6 3.2 0.00 0.03 0.03 93 1009.9
20260507070906 19 8 0.0 1.6 0.00 0.03 0.03 93 1009.7
20260507070404 19 300 0.0 0.0 0.00 0.03 0.03 93 1009.7
20260507065901 19 330 1.6 1.6 0.00 0.03 0.03 93 1009.6
20260507065357 19 248 0.0 1.6 0.00 0.03 0.03 92 1009.6
20260507064854 19 301 1.6 1.6 0.00 0.03 0.03 92 1009.6
20260507064353 19 223 1.6 1.6 0.00 0.03 0.03 92 1009.4
20260507063850 20 308 0.0 0.0 0.00 0.03 0.03 92 1009.4
20260507063347 20 265 1.6 1.6 0.00 0.03 0.03 91 1009.0
20260507062844 20 241 1.6 1.6 0.00 0.03 0.03 91 1009.0
20260507062341 20 267 1.6 3.2 0.00 0.03 0.03 91 1009.3
20260507061839 20 325 0.0 0.0 0.00 0.03 0.03 90 1009.9
20260507061336 20 160 0.0 1.6 0.18 0.03 0.03 89 1010.3
20260507060835 20 210 1.6 3.2 0.18 0.03 0.03 88 1010.2
20260507060331 20 201 4.8 6.4 0.00 0.00 0.00 87 1010.4
20260507055828 20 281 1.6 1.6 0.00 0.00 0.00 86 1010.2
20260507055323 20 259 0.0 1.6 0.00 0.00 0.00 85 1010.6
20260507054820 20 146 3.2 3.2 0.00 0.00 0.00 85 1010.6
20260507054316 20 234 1.6 3.2 0.00 0.00 0.00 85 1010.8
20260507053813 20 233 1.6 1.6 0.00 0.00 0.00 84 1010.7
20260507053311 21 257 0.0 0.0 0.00 0.00 0.00 83 1010.8
20260507052810 21 233 3.2 3.2 0.00 0.00 0.00 82 1010.7
20260507052307 21 155 1.6 3.2 0.00 0.00 0.00 82 1010.9
20260507051804 21 280 0.0 0.0 0.00 0.00 0.00 81 1010.9
20260507051301 21 249 1.6 1.6 0.00 0.00 0.00 80 1011.1
20260507050758 21 223 1.6 1.6 0.00 0.00 0.00 79 1011.1
20260507050254 21 234 1.6 1.6 0.00 0.00 0.00 79 1011.0
20260507045751 21 285 0.0 0.0 0.00 0.00 0.00 78 1011.3
20260507045247 21 241 1.6 1.6 0.00 0.00 0.00 78 1011.3
20260507044745 21 303 0.0 0.0 0.00 0.00 0.00 78 1011.1
20260507044241 21 280 0.0 0.0 0.00 0.00 0.00 78 1011.2
20260507043737 21 275 0.0 0.0 0.00 0.00 0.00 77 1010.8
20260507043234 21 273 0.0 0.0 0.00 0.00 0.00 77 1010.6
20260507042731 21 299 0.0 0.0 0.00 0.00 0.00 77 1010.8
20260507042226 21 281 1.6 1.6 0.00 0.00 0.00 77 1010.9
20260507041724 21 262 1.6 1.6 0.00 0.00 0.00 77 1010.9
20260507041220 21 267 0.0 0.0 0.00 0.00 0.00 78 1010.7
20260507040717 21 287 0.0 0.0 0.00 0.00 0.00 78 1011.2
20260507040213 21 290 0.0 0.0 0.00 0.00 0.00 78 1011.0
20260507035709 21 286 0.0 0.0 0.00 0.08 0.08 78 1011.2
20260507035204 21 293 0.0 0.0 0.00 0.08 0.08 78 1011.3
20260507034702 21 293 0.0 1.6 0.00 0.08 0.08 78 1011.2
20260507034159 21 283 0.0 0.0 0.00 0.08 0.08 79 1011.3
20260507033658 21 283 0.0 0.0 0.00 0.08 0.08 79 1011.2
20260507033154 21 250 0.0 1.6 0.00 0.08 0.08 79 1011.0
20260507032652 21 271 0.0 0.0 0.00 0.08 0.08 79 1011.1
20260507032147 21 265 0.0 0.0 0.00 0.08 0.08 79 1011.0
20260507031645 21 293 0.0 0.0 0.00 0.08 0.08 79 1010.9
20260507031141 20 265 0.0 0.0 0.00 0.08 0.08 79 1011.1
20260507030638 20 285 0.0 0.0 0.00 0.08 0.08 79 1011.1
20260507030136 20 283 0.0 0.0 0.00 0.08 0.08 79 1010.8
20260507025633 20 276 0.0 0.0 0.00 0.08 0.08 79 1011.1
20260507025129 20 220 1.6 1.6 0.00 0.08 0.08 79 1011.1
20260507024628 20 268 0.0 0.0 0.00 0.08 0.08 79 1011.2
20260507024125 20 287 0.0 0.0 0.00 0.08 0.08 79 1011.2
20260507023620 20 284 0.0 0.0 0.00 0.08 0.08 79 1011.2
20260507023118 20 257 1.6 1.6 0.00 0.08 0.08 79 1011.0
20260507022615 20 218 1.6 1.6 0.00 0.08 0.08 79 1011.3
20260507022110 20 302 0.0 0.0 0.00 0.08 0.08 78 1011.3
20260507021606 20 302 0.0 0.0 0.00 0.08 0.08 78 1011.2
20260507021102 20 285 0.0 0.0 0.00 0.08 0.08 78 1011.5
20260507020601 21 315 0.0 0.0 0.00 0.08 0.08 77 1011.5
20260507020057 21 154 1.6 3.2 0.00 0.08 0.08 77 1011.4
20260507015555 21 256 0.0 0.0 0.00 0.08 0.08 77 1011.6
20260507015052 21 256 0.0 0.0 0.00 0.08 0.08 76 1011.6
20260507014549 21 279 0.0 0.0 0.00 0.08 0.08 77 1011.5
20260507014045 21 279 0.0 0.0 0.00 0.08 0.08 77 1011.7
20260507013542 21 284 0.0 0.0 0.00 0.08 0.08 76 1011.2
20260507013039 21 286 0.0 0.0 0.00 0.08 0.08 76 1011.3
20260507012536 21 287 0.0 0.0 0.00 0.08 0.08 75 1011.3
20260507012032 21 286 0.0 0.0 0.00 0.08 0.08 75 1011.2
20260507011530 21 289 0.0 0.0 0.00 0.08 0.08 75 1011.3
20260507011025 21 289 0.0 0.0 0.00 0.08 0.08 74 1011.3
20260507010520 21 289 0.0 0.0 0.00 0.08 0.08 73 1011.5
20260507010017 21 286 0.0 0.0 0.00 0.08 0.08 72 1011.6
20260507005515 21 256 0.0 1.6 0.00 0.08 0.08 72 1011.5
20260507005011 21 285 0.0 0.0 0.00 0.08 0.08 72 1011.3
20260507004508 21 288 0.0 0.0 0.00 0.08 0.08 72 1011.3
20260507004005 22 272 0.0 0.0 0.00 0.08 0.08 72 1011.3
20260507003500 22 267 1.6 1.6 0.00 0.08 0.08 71 1011.4
20260507002955 21 286 0.0 0.0 0.00 0.08 0.08 71 1011.5
20260507002453 22 294 0.0 0.0 0.00 0.08 0.08 71 1011.5
20260507001949 22 278 0.0 0.0 0.00 0.08 0.08 71 1011.1
20260507001446 22 298 0.0 0.0 0.00 0.08 0.08 71 1011.1
20260507000943 22 275 0.0 0.0 0.00 0.08 0.08 70 1011.2
20260507000438 22 231 0.0 1.6 0.00 0.08 0.08 70 1011.0
20260506235934 22 90 1.6 3.2 0.00 0.08 0.08 69 1011.2
20260506235432 22 164 1.6 1.6 0.00 0.08 0.08 70 1011.1
20260506234927 22 307 0.0 0.0 0.00 0.08 0.08 70 1011.1
20260506234425 22 293 0.0 0.0 0.00 0.08 0.08 70 1011.1
20260506233923 22 313 0.0 0.0 0.00 0.08 0.08 70 1010.8
20260506233419 22 280 0.0 0.0 0.00 0.08 0.08 69 1010.9
20260506232910 22 286 0.0 0.0 0.00 0.08 0.08 70 1010.9
20260506232407 22 302 0.0 0.0 0.00 0.08 0.08 70 1010.8
20260506231903 22 272 0.0 0.0 0.00 0.08 0.08 70 1010.8
20260506231400 22 262 0.0 0.0 0.00 0.08 0.08 69 1010.7
20260506230857 22 267 0.0 0.0 0.00 0.08 0.08 69 1010.7
20260506230354 22 280 0.0 0.0 0.00 0.08 0.08 69 1010.6
20260506225850 22 296 0.0 0.0 0.00 0.08 0.08 70 1010.7
20260506225348 22 319 0.0 0.0 0.00 0.08 0.08 68 1010.8
20260506224845 23 320 0.0 0.0 0.00 0.08 0.08 68 1010.8
20260506224342 23 231 0.0 1.6 0.00 0.08 0.08 68 1010.7
20260506223838 23 292 0.0 0.0 0.00 0.08 0.08 67 1010.8
20260506223333 23 306 0.0 0.0 0.00 0.08 0.08 67 1010.9
20260506222830 23 303 0.0 0.0 0.00 0.08 0.08 66 1010.8
20260506222326 23 220 0.0 0.0 0.00 0.08 0.08 65 1010.8
20260506221824 23 292 0.0 0.0 0.00 0.08 0.08 65 1010.8
20260506221321 23 299 0.0 0.0 0.00 0.08 0.08 66 1011.1
20260506220819 23 326 0.0 0.0 0.00 0.08 0.08 66 1011.0
20260506220319 23 317 0.0 0.0 0.00 0.08 0.08 65 1011.1
20260506215816 23 267 1.6 1.6 0.00 0.08 0.08 64 1010.8
20260506215312 23 325 0.0 0.0 0.00 0.08 0.08 66 1010.8
20260506214808 23 235 1.6 3.2 0.00 0.08 0.08 64 1010.8
20260506214305 23 284 1.6 3.2 0.00 0.08 0.08 64 1010.9
20260506213803 23 310 0.0 1.6 0.00 0.08 0.08 66 1010.8
20260506213300 23 255 0.0 1.6 0.00 0.08 0.08 64 1010.8
20260506212757 23 298 0.0 0.0 0.00 0.08 0.08 64 1010.8
20260506212253 23 291 0.0 0.0 0.00 0.08 0.08 65 1010.9
20260506211748 23 328 0.0 1.6 0.00 0.08 0.08 66 1010.9
20260506211245 23 280 0.0 0.0 0.00 0.08 0.08 65 1010.6
20260506210742 23 286 0.0 1.6 0.00 0.08 0.08 65 1010.9
20260506210239 23 344 0.0 0.0 0.00 0.08 0.08 63 1010.7
20260506205736 23 304 0.0 0.0 0.00 0.08 0.08 63 1010.4
20260506205232 23 244 1.6 1.6 0.00 0.08 0.08 63 1010.6
20260506204729 23 181 3.2 4.8 0.00 0.08 0.08 63 1010.6
20260506204226 23 254 4.8 6.4 0.00 0.08 0.08 63 1010.4
20260506203724 23 265 3.2 3.2 0.00 0.08 0.08 63 1010.2
20260506203221 23 218 1.6 1.6 0.00 0.08 0.08 63 1009.9
20260506202719 23 271 3.2 4.8 0.00 0.08 0.08 64 1010.1
20260506202215 23 138 3.2 4.8 0.00 0.08 0.08 65 1010.1
20260506201712 23 275 1.6 1.6 0.00 0.08 0.08 65 1010.2
20260506201208 23 283 4.8 4.8 0.00 0.08 0.08 64 1010.4
20260506200705 23 207 3.2 3.2 0.00 0.08 0.08 65 1010.5
20260506200202 23 198 3.2 4.8 0.00 0.08 0.08 65 1010.4
20260506195658 23 252 4.8 6.4 0.00 0.08 0.08 66 1010.4
20260506195155 23 188 3.2 4.8 0.00 0.08 0.08 65 1010.6
20260506194652 23 185 3.2 4.8 0.00 0.08 0.08 65 1010.8
20260506194148 23 220 3.2 3.2 0.00 0.08 0.08 66 1010.8
20260506193646 23 265 1.6 3.2 0.00 0.08 0.08 66 1011.0
20260506193143 23 282 0.0 0.0 0.00 0.08 0.08 68 1011.3
20260506192640 22 228 4.8 4.8 0.00 0.08 0.08 67 1011.3
20260506192136 22 214 3.2 4.8 0.00 0.08 0.08 68 1011.6
20260506191633 22 232 4.8 4.8 0.00 0.08 0.08 67 1011.8
20260506191129 22 222 3.2 3.2 0.00 0.08 0.08 69 1011.7
20260506190626 22 169 3.2 3.2 0.00 0.08 0.08 70 1011.8
20260506190123 22 216 1.6 1.6 0.00 0.08 0.08 72 1012.0
20260506185620 21 275 1.6 1.6 0.00 0.08 0.08 74 1012.2
20260506185116 21 307 0.0 0.0 0.00 0.08 0.08 78 1012.3
20260506184614 21 313 0.0 0.0 0.00 0.08 0.08 78 1012.4
20260506184111 21 308 0.0 0.0 0.13 0.08 0.08 77 1012.4
20260506183608 22 321 0.0 0.0 0.13 0.08 0.08 76 1012.3
20260506183103 23 286 0.0 0.0 0.00 0.05 0.05 71 1012.5
20260506182601 23 260 1.6 1.6 0.00 0.05 0.05 68 1012.7
20260506182058 23 196 3.2 4.8 0.00 0.05 0.05 65 1012.3
20260506181556 23 129 3.2 3.2 0.00 0.05 0.05 66 1012.4
20260506181053 22 287 1.6 3.2 0.00 0.05 0.05 68 1012.4
20260506180549 22 209 3.2 3.2 0.00 0.05 0.05 68 1012.3
20260506180046 22 225 1.6 1.6 0.00 0.05 0.05 69 1012.3
20260506175542 22 184 3.2 3.2 0.00 0.05 0.05 68 1012.3
20260506175039 22 179 4.8 6.4 0.00 0.05 0.05 69 1012.3
20260506174538 22 217 3.2 4.8 0.00 0.05 0.05 70 1012.4
20260506174033 22 154 3.2 4.8 0.00 0.05 0.05 70 1012.5
20260506173531 22 202 3.2 3.2 0.00 0.05 0.05 71 1012.6
20260506173028 21 202 4.8 6.4 0.00 0.05 0.05 71 1012.5
20260506172525 21 203 6.4 9.7 0.00 0.05 0.05 72 1012.7
20260506172021 21 195 4.8 4.8 0.00 0.05 0.05 72 1012.6
20260506171519 21 218 4.8 6.4 0.00 0.05 0.05 75 1012.7
20260506171017 20 188 4.8 4.8 0.00 0.05 0.05 76 1012.8
20260506170514 20 186 3.2 4.8 0.00 0.05 0.05 77 1013.1
20260506170006 20 157 4.8 4.8 0.00 0.05 0.05 77 1013.3
20260506165504 20 254 3.2 3.2 0.00 0.05 0.05 78 1013.5
20260506164959 20 183 3.2 4.8 0.00 0.05 0.05 78 1013.4
20260506164456 20 259 4.8 4.8 0.00 0.05 0.05 78 1013.4
20260506163954 20 245 3.2 4.8 0.00 0.05 0.05 79 1013.4
20260506163449 20 218 3.2 3.2 0.00 0.05 0.05 79 1013.5
20260506162944 20 199 3.2 3.2 0.00 0.05 0.05 79 1013.6
20260506162442 20 230 3.2 3.2 0.00 0.05 0.05 79 1013.6
20260506161939 20 246 1.6 1.6 0.00 0.05 0.05 79 1013.8
20260506161437 20 240 4.8 4.8 0.00 0.05 0.05 79 1013.6
20260506160934 19 258 1.6 1.6 0.00 0.05 0.05 81 1013.7
20260506160431 19 177 1.6 3.2 0.00 0.05 0.05 84 1014.1
20260506155929 19 305 0.0 0.0 0.18 0.05 0.05 83 1014.1
20260506155427 19 286 0.0 1.6 0.36 0.05 0.05 81 1014.3
20260506153554 20 178 3.2 3.2 0.00 0.00 0.00 77 1014.3
20260506153051 20 240 3.2 4.8 0.00 0.00 0.00 79 1014.4
20260506152548 20 249 1.6 1.6 0.00 0.00 0.00 78 1014.7
20260506152046 20 195 3.2 6.4 0.00 0.00 0.00 75 1014.6
20260506151544 21 243 3.2 4.8 0.00 0.00 0.00 73 1014.3
20260506151041 21 276 1.6 3.2 0.00 0.00 0.00 71 1014.5
20260506150537 20 255 4.8 4.8 0.00 0.00 0.00 72 1014.3
20260506150034 20 207 6.4 11.3 0.00 0.00 0.00 73 1014.3
20260506145531 20 257 4.8 4.8 0.00 0.00 0.00 73 1014.3
20260506145028 20 191 4.8 4.8 0.00 0.00 0.00 74 1014.5
20260506144525 20 228 1.6 3.2 0.00 0.00 0.00 74 1014.4
20260506144022 20 236 3.2 3.2 0.00 0.00 0.00 75 1014.3
20260506143520 20 247 1.6 3.2 0.00 0.00 0.00 76 1014.0
20260506143018 20 188 6.4 9.7 0.00 0.00 0.00 76 1014.0
20260506142515 20 158 3.2 4.8 0.00 0.00 0.00 78 1014.2
20260506142013 20 127 6.4 11.3 0.00 0.00 0.00 77 1014.3
20260506141511 20 258 0.0 1.6 0.00 0.00 0.00 74 1014.6
20260506141009 20 265 1.6 1.6 0.00 0.00 0.00 74 1014.5
20260506140506 20 324 0.0 1.6 0.00 0.00 0.00 73 1014.3
20260506140003 20 285 1.6 1.6 0.00 0.00 0.00 74 1014.1
20260506135500 20 174 4.8 6.4 0.00 0.00 0.00 73 1014.1
20260506134956 20 175 3.2 3.2 0.00 0.00 0.00 73 1014.1
20260506134452 20 293 3.2 4.8 0.00 0.00 0.00 73 1014.1
20260506133949 20 185 4.8 6.4 0.00 0.00 0.00 72 1014.2
20260506133446 20 219 3.2 4.8 0.00 0.00 0.00 72 1014.2
20260506132943 20 228 4.8 6.4 0.00 0.00 0.00 72 1014.1
20260506132440 20 231 6.4 9.7 0.00 0.00 0.00 72 1014.2
20260506131937 20 200 9.7 12.9 0.00 0.00 0.00 72 1014.1
20260506131434 20 234 4.8 6.4 0.00 0.00 0.00 72 1014.1
20260506130931 20 219 4.8 6.4 0.00 0.00 0.00 72 1014.3